#timestamp,LO_Frequency,Hit,StdDev 
1681578015.7,286046995.4,P
1681578035.5,286046996.8,N
1681578055.4,286046998.2,N
1681578075.2,286047000.5,N
1681578095.0,286046998.5,N
1681578096.0,286046998.5,N
1681578115.8,286046998.4,N
1681578135.6,286046998.5,N
1681578155.5,286047001.2,N
1681578175.3,286047002.4,N
1681578195.1,286047002.3,N
1681578215.9,286047002.0,N
1681578235.7,286047001.5,N
1681578255.5,286047001.4,N
1681578275.4,286047001.5,N
1681578295.2,286047003.4,N
1681578315.1,286047001.7,N
1681578316.0,286047001.7,N
1681578335.8,286047003.9,N
1681578355.6,286047003.0,N
1681578375.5,286047003.1,N
1681578395.3,286047003.8,N
1681578415.2,286047003.9,N
1681578435.9,286047006.0,N
1681578455.7,286047004.1,N
1681578475.6,286047003.4,N
1681578495.4,286047003.2,N
1681578515.2,286047005.7,N
1681578535.1,286047005.3,N
1681578536.0,286047005.3,N
1681578555.8,286047005.7,N
1681578575.7,286047004.6,N
1681578595.5,286047006.2,N
1681578615.3,286047006.3,N
1681578635.2,286047009.1,Y
1681578655.0,286047007.1,P
1681578655.9,286047007.1,P
1681578675.7,286047009.1,P
1681578695.6,286047007.1,Y
1681578715.4,286046999.9,P
1681578735.3,286046998.1,N
1681578755.1,286047000.9,N
1681578775.8,286047000.1,N
1681578795.7,286046999.8,N
1681578815.5,286046998.1,N
1681578835.4,286046999.9,N
1681578855.2,286047001.3,N
1681578875.0,286047002.0,N
1681578875.9,286047002.0,N
1681578895.8,286047002.0,N
1681578915.6,286047002.6,N
1681578935.4,286047004.3,N
1681578955.3,286047002.3,N
1681578975.1,286047001.5,N
1681578995.9,286047003.2,N
1681579015.7,286047003.7,N
1681579035.5,286047003.8,N
1681579055.4,286047003.4,N
1681579075.2,286047004.6,N
1681579095.0,286047007.2,Y
1681579096.0,286047007.2,P
1681579115.8,286047002.9,N
1681579135.6,286047001.8,N
1681579155.5,286047003.2,N
1681579175.3,286047005.9,N
1681579195.1,286047005.9,N
1681579215.9,286047001.9,N
1681579235.7,286047003.0,N
1681579255.6,286047003.5,N
1681579275.4,286047005.8,Y
1681579295.2,286047000.7,P
1681579315.1,286047002.6,N
1681579316.0,286047002.6,N
1681579335.8,286047002.2,N
1681579355.6,286047002.5,N
1681579375.5,286047001.7,N
1681579395.3,286047004.3,Y
1681579415.2,286047000.3,P
1681579435.9,286047000.2,N
1681579455.7,286047001.2,N
1681579475.6,286047002.8,Y
1681579495.4,286046998.2,P
1681579515.2,286047000.3,N
1681579535.1,286047000.5,N
1681579536.0,286047000.5,N
1681579555.8,286047002.8,N
1681579575.7,286047002.6,N
1681579595.5,286047002.7,N
1681579615.3,286047000.4,N
1681579635.2,286047002.2,N
1681579655.0,286047002.6,N
1681579655.9,286047002.6,N
1681579675.7,286047002.2,N
1681579695.6,286047002.3,N
1681579715.4,286047001.7,N
1681579735.3,286047001.8,N
1681579755.1,286047003.4,N
1681579756.0,286047003.4,N
1681579775.8,286047003.9,N
1681579795.7,286047003.6,N
1681579815.5,286047005.5,Y
1681579835.3,286047001.7,P
1681579855.2,286047003.9,P
1681579875.0,286047003.4,P
1681579875.9,286047003.4,Y
1681579895.8,286047001.0,P
1681579915.6,286047000.8,N
1681579935.4,286046999.7,N
1681579955.3,286046999.8,N
1681579975.1,286047000.1,N
1681579995.8,286047002.7,N
1681580015.7,286047002.2,N
1681580035.5,286047002.2,N
1681580055.4,286047002.5,N
1681580075.2,286047001.6,N
1681580095.0,286047002.5,N
1681580095.9,286047002.5,N
1681580115.8,286047003.4,Y
1681580135.6,286047001.4,P
1681580155.4,286047002.1,P
1681580175.3,286047001.8,P
1681580195.1,286047003.8,Y
1681580215.9,286047000.1,P
1681580235.7,286047002.3,N
1681580255.5,286047000.2,N
1681580275.4,286047002.5,N
1681580295.2,286047002.3,N
1681580315.0,286047004.2,Y
1681580316.0,286047004.2,P
1681580335.8,286047002.8,N
1681580355.6,286047000.9,N
1681580375.5,286047001.0,N
1681580395.3,286047004.4,Y
1681580415.1,286047000.6,P
1681580435.9,286046999.9,N
1681580455.7,286047002.4,N
1681580475.5,286047002.8,N
1681580495.4,286047002.6,N
1681580515.2,286047004.0,Y
1681580535.1,286046999.8,P
1681580536.0,286046999.8,N
1681580555.8,286047002.0,N
1681580575.6,286047000.4,N
1681580595.5,286046998.6,N
1681580615.3,286047000.6,N
1681580635.1,286047000.6,N
1681580655.9,286047001.1,N
1681580675.7,286046999.9,N
1681580695.6,286047002.3,N
1681580715.4,286047004.3,Y
1681580735.2,286047000.3,P
1681580755.1,286046998.2,P
1681580756.0,286046998.2,N
1681580775.8,286047002.4,N
1681580795.7,286047002.7,N
1681580815.5,286047000.0,N
1681580835.3,286047001.5,N
1681580855.2,286047002.0,N
1681580875.9,286047001.4,N
1681580895.7,286046999.9,N
1681580915.6,286047001.3,N
1681580935.4,286047004.0,N
1681580955.2,286047004.4,N
1681580975.1,286047002.0,N
1681580976.0,286047002.0,N
1681580995.8,286047004.2,N
1681581015.7,286047003.8,N
1681581035.5,286047003.7,N
1681581055.3,286047004.0,N
1681581075.2,286047006.0,Y
1681581095.0,286047002.0,P
1681581095.9,286047002.0,P
1681581115.8,286047004.3,P
1681581135.6,286047002.3,N
1681581155.4,286047003.6,Y
1681581175.3,286047002.3,P
1681581195.1,286047002.2,P
1681581215.8,286047002.0,P
1681581235.7,286047002.4,Y
1681581255.5,286047000.7,P
1681581275.4,286047000.5,N
1681581295.2,286047000.8,N
1681581315.0,286047001.5,N
1681581315.9,286047001.5,N
1681581335.8,286047001.5,N
1681581355.6,286047002.8,Y
1681581375.4,286047001.2,P
1681581395.3,286047000.1,N
1681581415.1,286047002.4,P
1681581435.9,286047000.2,N
1681581455.7,286047001.2,N
1681581475.5,286047000.5,N
1681581495.4,286047001.1,N
1681581515.2,286047000.5,N
1681581535.0,286047000.8,N
1681581535.9,286047000.8,N
1681581555.8,286047001.2,N
1681581575.6,286047002.6,Y
1681581595.5,286046999.9,P
